OpenBCM V2.0.3 (Linux)

Packet Radio Mailbox

IZ3LSV

[San Dona' di P. JN]

 Login: GUEST





  
LU9DCE > KEPS     10.01.18 18:16l 258 Lines 12923 Bytes #999 (0) @ LUNET
BID : 29018_LU9DCE
Read: GUEST
Subj: SAT TLE OF 10
Path: IZ3LSV<IQ2LB<IK1NHL<CX2SA<XE1FH<LU9DCE
Sent: 180110/1601Z @:LU9DCE.TOR.BA.ARG.SOAM #:29018 [TORTUGUITAS] FBB7.0.8-beta
From: LU9DCE@LU9DCE.TOR.BA.ARG.SOAM
To  : KEPS@LUNET


            __    _  _  ___  ____   ___  ____    ____  ____  ____
           (  )  / )( \/ _ \(    \ / __)(  __)  (  _ \(  _ \/ ___)
           / (_/\) \/ (\__  )) D (( (__  ) _)    ) _ ( ) _ (\___ \
           \____/\____/(___/(____/ \___)(____)  (____/(____/(____/
               ESTACION DE PACKET RADIO - BUENOS AIRES (GF05OM)
                   BOLETINES INFORMATIVOS PROGRAMADOS (BIP)
                    LU9DCE@GMX.COM - RF 147070 @ 1200 BAUD
                        https://lu9dce.wordpress.com/
                      telnet lu9dce.dynu.com port 6300

+------------------------------------------------------------------------------+
OSCAR 7
1  7530U 74089B   18009.92755694 -.00000025 +00000-0 +12304-3 0  9999
2  7530 101.6639 339.7728 0011846 282.5871 145.7727 12.53630624974538
OSCAR 11 (UoSAT 2)
1 14781U 84021B   18010.18160452  .00000054  00000-0  12845-4 0  9996
2 14781  97.6711  52.9518 0007291 235.6712 124.3813 14.82972278821024
OSCAR 19 (LUSAT)
1 20442U 90005G   18009.77065533 +.00000014 +00000-0 +21392-4 0  9996
2 20442 098.5961 309.3648 0010649 257.1061 102.8934 14.32883773461146
KITSAT B
1 22825U 93061C   18010.51182747  .00000002  00000-0  18346-4 0  9991
2 22825  98.8422 343.9494 0009476  86.7939 273.4327 14.30018828267039
POSAT 1
1 22826U 93061D   18009.86558154 +.00000011 +00000-0 +22002-4 0  9991
2 22826 098.8362 343.3505 0009989 079.4469 280.7837 14.30349410266878
RADIO ROSTO
1 23439U 94085A   18009.93466604 -.00000048 +00000-0 -15067-3 0  9999
2 23439 064.8145 244.7773 0162318 210.1050 243.1844 11.27566329948723
JAS 2
1 24278U 96046B   18009.84030492 -.00000064 +00000-0 -31094-4 0  9999
2 24278 098.5315 230.2783 0350708 161.5470 199.8770 13.53080462056574
TECHSAT 1B
1 25397U 98043D   18009.96692528 -.00000005  00000-0  16708-4 0  9997
2 25397  98.6340 313.1636 0002300 104.7611 255.3822 14.23637655 13212
ISS (ZARYA)
1 25544U 98067A   18009.72532333 +.00001939 +00000-0 +36335-4 0  9992
2 25544 051.6422 088.6824 0003243 358.5906 152.4535 15.54279143093879
PCSAT
1 26931U 01043C   18009.92406245 -.00000044 +00000-0 +15066-4 0  9990
2 26931 067.0516 277.7742 0005240 275.8090 084.2414 14.30490152849841
SAUDISAT 1C
1 27607U 02058C   18009.94528141 -.00000020 +00000-0 +17796-4 0  9996
2 27607 064.5536 213.7022 0045939 008.2814 351.9036 14.75410546809486
CUTE-1
1 27844U 03031E   18010.49677383  .00000060  00000-0  46574-4 0  9995
2 27844  98.6886  21.4698 0010793 106.5038 253.7326 14.22087794753787
CUBESAT XI 4
1 27848U 03031J   18010.55315095  .00000037  00000-0  36697-4 0  9994
2 27848  98.6975  21.8677 0010641 115.3154 244.9127 14.21695368753669
MOZHAYETS 4
1 27939U 03042A   18010.51405132  .00000110  00000-0  28280-4 0  9996
2 27939  97.9657 153.9597 0011701 290.3786 134.2522 14.66647854763702
CUBESAT XI 5
1 28895U 05043F   18009.93318444 +.00000140 +00000-0 +35715-4 0  9998
2 28895 097.8856 168.0149 0016316 205.7367 154.3026 14.63496141650497
CUTE-1.7+APD II
1 32785U 08021C   18009.82724116 +.00000214 +00000-0 +28878-4 0  9999
2 32785 097.5541 029.5176 0012631 197.3476 162.7311 14.88042918525556
DELFI C3
1 32789U 08021G   18010.22990313  .00001530  00000-0  10996-3 0  9996
2 32789  97.5348  68.8990 0013989 115.3216 244.9462 15.05664874528019
SEEDS
1 32791U 08021J   18010.10523955  .00000239  00000-0  29943-4 0  9998
2 32791  97.5472  34.7535 0013459 178.5917 181.5342 14.90441057525961
YUBELEINY
1 32953U 08025A   18010.28979553  .00000011  00000-0  98560-5 0  9990
2 32953  82.5041 110.8843 0019453 191.3264 168.7381 12.43080879437153
PRISM (HITOMI)
1 33493U 09002B   18010.39792911  .00001107  00000-0  10404-3 0  9995
2 33493  98.1457 266.3028 0016540 114.4062 245.8877 14.96037990486758
KKS-1 (KISEKI)
1 33499U 09002H   18009.94779340 +.00000123 +00000-0 +26180-4 0  9997
2 33499 098.3457 186.6414 0010420 078.3760 281.8617 14.75282795481426
SWISSCUBE
1 35932U 09051B   18009.97947555  .00000131  00000-0  40638-4 0  9996
2 35932  98.5214 157.5586 0007137 343.9251  16.1719 14.56109059440413
BEESAT
1 35933U 09051C   18009.94956278 +.00000115 +00000-0 +36985-4 0  9998
2 35933 098.5253 158.9728 0005637 000.7679 359.3526 14.56218173440433
ITUPSAT 1
1 35935U 09051E   18010.39649768  .00000100  00000-0  34055-4 0  9994
2 35935  98.5366 159.6841 0007785 350.2439   9.8605 14.55401631440377
XIWANG-1 (HOPE-1)
1 36122U 09072B   18009.92208079 -.00000018 +00000-0 +63738-4 0  9998
2 36122 100.0855 031.9034 0008096 116.2249 243.9698 13.16342919387720
TISAT 1
1 36799U 10035E   18009.90955302 +.00000476 +00000-0 +54630-4 0  9993
2 36799 098.0841 142.1800 0012495 014.4363 345.7208 14.90663458406379
JUGNU
1 37839U 11058B   18010.05548450  .00000282  00000-0  83818-5 0  9991
2 37839  19.9611 276.1261 0018817 303.5624 175.1117 14.12605794322988
SRMSAT
1 37841U 11058D   18010.20432550  .00000298  00000-0  18312-4 0  9997
2 37841  19.9731 321.1679 0011883 194.4399 297.4235 14.10595821322548
M-CUBED/EXP-1 PRIME
1 37855U 11061F   18009.89731342  .00001139  00000-0  66555-4 0  9997
2 37855 101.7212 351.4470 0177902 190.5035 169.2439 15.03969712337850
HORYU 2
1 38340U 12025D   18009.93374232 +.00000204 +00000-0 +38059-4 0  9994
2 38340 098.3750 026.1488 0011532 000.7736 359.3488 14.75481046293369
STRAND 1
1 39090U 13009E   18009.83272639 +.00000031 +00000-0 +26214-4 0  9995
2 39090 098.5339 218.1328 0010075 051.6745 308.5344 14.35006013255097
BEESAT 3
1 39134U 13015E   18010.11856111  .00001052  00000-0  59717-4 0  9995
2 39134  64.8637 278.0539 0029445 230.9785 128.8720 15.18703598260898
SOMP
1 39135U 13015F   18009.95165407 +.00000839 +00000-0 +52876-4 0  9998
2 39135 064.8700 289.9304 0030570 255.4931 104.2802 15.16307660260265
BEESAT 2
1 39136U 13015G   18009.93260580 +.00000636 +00000-0 +43112-4 0  9993
2 39136 064.8703 292.3590 0031312 253.6079 106.1603 15.15791908260218
CUBEBUG 1
1 39153U 13018D   18010.21075190  .00000199  00000-0  33048-4 0  9990
2 39153  97.9822 106.3971 0018389  98.0212 262.3087 14.80322253254221
ZACUBE
1 39417U 13066B   18009.93504335 +.00000210 +00000-0 +33134-4 0  9991
2 39417 097.6058 046.8731 0058061 314.4232 045.2237 14.80856874223370
TRITON 1
1 39427U 13066M   18010.05876547  .00000228  00000-0  44264-4 0  9999
2 39427  97.6366  16.5284 0115213  46.5306 314.5412 14.67594776221389
GOMX 1
1 39430U 13066Q   18010.50325713  .00000239  00000-0  51836-4 0  9992
2 39430  97.6807 358.9033 0152998 108.1853 253.6072 14.59002771220161
HUMSAT D
1 39433U 13066T   18009.74259500  .00000229  00000-0  28113-4 0  9990
2 39433  97.6273  71.4887 0029722 248.9357 110.8683 14.91713500224807
50 SAT
1 39436U 13066W   18009.83914097  .00055849  00000-0  83217-3 0  9995
2 39436  97.7112 133.2594 0005427  49.6588 310.5138 15.54914949228542
CUBEBUG 2
1 39440U 13066AA  18009.94251199 +.00000227 +00000-0 +38773-4 0  9997
2 39440 097.6116 034.5044 0080287 350.4347 009.5330 14.75594495221382
FUNCUBE 1
1 39444U 13066AE  18009.67544303 +.00000251 +00000-0 +37631-4 0  9992
2 39444 097.6073 047.9490 0057186 311.1897 048.4393 14.81618654221592
UWE-3
1 39446U 13066AG  18009.83002622 +.00000211 +00000-0 +34984-4 0  9999
2 39446 097.6075 040.2387 0069576 333.2148 026.5477 14.78127428221722
SPROUT
1 39770U 14029E   18010.49998231  .00000488  00000-0  61114-4 0  9994
2 39770  97.8756 112.9430 0009310  16.1614 343.9897 14.86622710196930
UNISAT 6
1 40012U 14033C   18009.88614799  .00000168  00000-0  32737-4 0  9999
2 40012  97.8299 251.8001 0058405 350.4481   9.5612 14.73748727191382
DUCHIFAT 1
1 40021U 14033M   18010.33596521  .00000372  00000-0  44350-4 0  9994
2 40021  97.9175 288.7713 0012744 345.1593  14.9248 14.90165065193447
QB50P1
1 40025U 14033R   18010.19108058  .00000256  00000-0  33546-4 0  9992
2 40025  97.9091 285.8839 0012330 351.3964   8.7039 14.88613406193282
CHUBUSAT 1
1 40300U 14070C   18010.43746821  .00000550  00000-0  27523-4 0  9997
2 40300  97.3795  91.4130 0022081  94.6958 325.1629 15.21334975176294
NUDT-PHONESAT
1 40900U 15049B   18009.95076853 +.00001986 +00000-0 +93542-4 0  9994
2 40900 097.4425 020.1004 0012573 217.8977 142.1375 15.20642158127863
ZDPS 2A
1 40901U 15049C   18010.48938998  .00000820  00000-0  45092-4 0  9995
2 40901  97.4587  19.3379 0012667 220.9794 139.0488 15.16791200127750
ZDPS 2B
1 40902U 15049D   18010.17851295  .00000799  00000-0  44227-4 0  9990
2 40902  97.4472  17.3232 0012811 219.0313 140.9997 15.16601803127695
XW-2A
1 40903U 15049E   18010.49552098  .00001731  00000-0  45639-4 0  9990
2 40903  97.4028  43.6762 0012990 235.4194 124.5827 15.39874479129531
KAITUO 1A
1 40904U 15049F   18010.49076850  .00000680  00000-0  40071-4 0  9995
2 40904  97.4571  17.0635 0013353 221.2006 291.6199 15.14844245127625
OBJECT G
1 40905U 15049G   18010.50934290  .00000388  00000-0  25053-4 0  9997
2 40905  97.4553  15.4263 0014974 211.4225 148.6114 15.13825786127568
XW-2C
1 40906U 15049H   18010.53677184  .00000630  00000-0  37219-4 0  9994
2 40906  97.4577  16.9676 0014205 211.2227 148.8163 15.14967593127623
XW-2D
1 40907U 15049J   18010.50406265  .00000667  00000-0  39103-4 0  9996
2 40907  97.4549  16.6544 0013625 208.9004 151.1475 15.15102131127628
LILACSAT 2
1 40908U 15049K   18009.92885569 +.00000330 +00000-0 +22074-4 0  9995
2 40908 097.4656 015.6464 0015193 211.8663 148.1651 15.13377458127439
XW-2F
1 40910U 15049M   18010.50494049  .00000984  00000-0  54288-4 0  9990
2 40910  97.4560  17.6877 0014458 205.6458 154.4059 15.16185567127558
XW-2B
1 40911U 15049N   18010.51606198  .00000670  00000-0  39291-4 0  9991
2 40911  97.4588  17.1406 0013530 209.3343 150.7131 15.15052369127525
